Weather in Lesnoye

Russia / Kaliningrad Oblast     54°56′34″N   20°04′05″E
temp.,
°C
wind,
m/s
gust,
m/s
humid.,
%
clouds,
%
prec.,
mm/h
press.,
hPa
HPBL,
m
19 may, wed
wed1923:00+9wnw6891100 0.0 1008114
02:00+9wnw5789100 0.0 1008100
05:00+9wnw5789100 0.0 1007107
08:00+9w7893100 0.0 1008141
11:00+9wnw6893100 0.0 1009141
14:00+9wnw71092100 0.0 1009164
17:00+9wnw6990100 0.1 1010177
20:00+9wnw6987100 0.3 1011153
20 may, thu
thu2023:00+9w71088100 0.0 1011159
02:00+9w912885 0.0 1011206
05:00+9w912885 0.0 1012216
08:00+9w811880 0.0 1013236
11:00+9w710880 0.0 1014256
14:00+9wnw710890 0.0 1014273
17:00+9wnw913870 0.0 1014428
20:00+9w9138418 0.0 1014441
21 may, fri
fri2123:00+9wsw1013815 0.0 1014437
02:00+9wsw1013835 0.0 1014464
05:00+9wsw913844 0.0 1013472
08:00+9sw81084100 0.0 1014363
11:00+10ssw7986100 0.0 1013205
14:00+12ssw71075100 0.0 1012127
17:00+13ssw91470100 0.0 1010157
20:00+13ssw91473100 0.3 1009183
22 may, sat
sat2223:00+10sse5789100 1.7 1008103
02:00+10ssw71091100 2.3 1007160
05:00+10ssw71190100 0.0 1006216
08:00+10ssw81192100 0.0 1007275
11:00+11ssw81188100 0.1 1007199
14:00+11ssw81289100 0.9 1006180
17:00+11s6891100 1.5 100691
20:00+11ssw5794100 3.3 100579
23 may, sun
sun2323:00+10ssw3394100 1.0 100537
02:00+10ssw68927 1.3 1004129
05:00+10sw69885 0.0 1004149
08:00+10ssw710875 0.0 1005210
11:00+10sw81290100 0.1 1006394
14:00+10sw91292100 0.4 1007382
17:00+10wsw10158897 0.2 1008644
20:00+10wsw1216854 0.3 1009619